Location: Newark
(49.3000°N, 9.4667°E)
Time: 21:05:51
(UTC+00:00)

Transit 4A - Pass Details

Date: 27 May 2019
Orbit: 862 x 983 km, 66.8° (Epoch: 17 June)

Event Time Altitude Azimuth Distance (km) Brightness Sun altitude
Rises 22:48:35 0° 320° (NW) 3,698 12.0 -19.0°
Reaches altitude 10° 22:51:20 10° 313° (NW) 2,744 11.0 -19.1°
Maximum altitude 22:57:12 39° 247° (WSW) 1,433 8.7 -19.2°
Enters shadow 22:59:39 28° 204° (SSW) 1,729 8.8 -19.2°
